Location: Lombard
(41.8800°N, 88.0080°W)
Time: 23:24:46
(UTC-05:00)

Tiros 1 - Pass Details

Date: 30 January 2023
Orbit: 628 x 662 km, 48.4° (Epoch: 20 March)

Event Time Altitude Azimuth Distance (km) Brightness Sun altitude
Rises 04:29:56 0° 283° (WNW) 2,927 - -29.3°
Reaches altitude 10° 04:32:24 10° 292° (WNW) 2,025 - -28.8°
Maximum altitude 04:36:43 36° 360° (N) 1,010 - -28.0°
Exits shadow 04:37:35 34° 24° (NNE) 1,071 8.4 -27.9°
Drops below altitude 10° 04:41:06 10° 67° (ENE) 2,046 10.6 -27.2°
Sets 04:43:36 0° 76° (ENE) 2,963 11.8 -26.7°
